Simultaneous Nadir Overpasses (SNOs) Predictions

Prediction of SNOs between GOES-16 and METOP-B Satellite Orbit:

Table of predicted SNOs for the next 14.0 days since TLE Epoch: 9/19/2025
Index Date Time (GOES-16) GOES-16 Lat,Lon METOP-B Lat,Lon Distance(km) Time Diff (sec)
1 09/20/2025 03:57:48 -0.07,-104.64 -0.04,-104.56 9.73 80
2 09/22/2025 15:56:05 0.07,-104.71 -0.06,-104.16 62.74 80
3 09/24/2025 04:17:48 -0.08,-104.67 -0.97,-108.78 468.02 80
4 09/25/2025 03:54:29 -0.08,-104.67 0.09,-103.79 100.15 80
5 09/26/2025 16:16:04 0.09,-104.73 0.92,-108.37 415.31 80
6 09/27/2025 15:52:46 0.09,-104.73 -0.20,-103.39 152.83 80
7 09/29/2025 04:14:29 -0.10,-104.68 -0.81,-108.01 378.10 80
8 09/30/2025 03:51:11 -0.10,-104.69 0.25,-103.02 189.82 80
9 10/01/2025 16:12:45 0.11,-104.74 0.76,-107.60 326.10 80
10 10/02/2025 15:49:28 0.11,-104.74 -0.37,-102.62 241.96 80
